Regional Weather Roundup
Issued by NWS Goodland, KS

Home | Current Version | Previous Version | Graphics & Text | Print | Product List | Glossary On
Versions: 1 2 3 4 5 6 7 8 9 10 11 12 13 14 15 16 17 18 19 20 21 22 23 24 25 26 27 28 29 30 31 32 33 34 35 36 37 38 39 40 41 42 43 44 45 46 47 48 49 50
793
ASUS43 KGLD 021559
RWRGLD

GOODLAND FORECAST AREA HOURLY WEATHER ROUNDUP
NATIONAL WEATHER SERVICE GOODLAND KS
900 AM MST FRI DEC 02 2016

...OFFICIAL OBSERVATIONS...

CITY           SKY/WX    TMP DP  RH WIND       PRES   REMARKS
GOODLAND KS    MOSUNNY   29  16  58 W6        30.21R
HILL CITY KS   SUNNY     30  19  63 W6        30.27R
IMPERIAL NEB   SUNNY     27  18  69 W5        30.23R
MCCOOK NEB     SUNNY     24  17  74 SW6       30.25R
AKRON CO       CLOUDY    27  18  69 W6        30.19R
BURLINGTON CO  PTSUNNY   28  18  66 NW6       30.20R
LIMON CO       CLOUDY    25  17  72 W5        30.18R
$$

...UNOFFICIAL OBSERVATIONS...

CITY           SKY/WX    TMP DP  RH WIND       PRES   REMARKS
COLBY KS       SUNNY     30  19  64 NW6       30.23S
LENORA KS        N/A     29  32 100 MISG        N/A
NORTON KS      SUNNY     30  18  59 N3        30.25
SHARON SPRINGS   N/A     29  19  64 CALM        N/A
TRENTON NEB      N/A     29  32 100 CALM        N/A
KIT CARSON CO    N/A     24  15  68 CALM        N/A
YUMA CO        PTSUNNY   30  19  64 CALM      30.21R
$$




USA.gov is the U.S. government's official web portal to all federal, state and local government web resources and services.